Lid_Strength_Index
4 4 4 3 3 3 3 2 2 2 2 2 1 1 1 1 1 1 1 1 1 1 1 1 0 0 -0 -0 -0 -0 -0 0 0
4 4 4 3 3 3 2 2 2 2 2 2 2 1 1 1 1 1 1 1 0 1 0 0 0 0 0 0 -0 -0 -0 0 1
4 4 3 3 3 3 2 2 2 1 1 2 2 1 1 1 1 1 1 0 1 1 0 0 -0 0 0 0 0 0 0 0 0
4 4 4 3 3 3 2 2 2 2 2 2 2 1 1 1 1 1 1 1 1 1 0 0 0 0 0 0 0 0 0 0 0
3 3 3 3 3 3 2 2 2 2 2 2 2 1 1 1 1 1 1 1 1 0 1 0 0 0 0 1 0 0 1 1 1
4 3 3 3 3 3 3 2 2 2 2 2 1 1 1 1 1 1 1 1 1 1 1 1 0 0 1 1 1 1 1 1 1
3 3 3 3 3 3 3 2 2 2 2 1 1 1 2 2 2 1 1 1 1 1 1 1 1 1 1 1 1 1 1 1 1
4 4 3 3 3 3 3 3 2 2 2 2 1 2 2 2 1 1 1 1 1 1 1 1 1 1 1 1 1 1 1 1 1
4 4 3 3 2 1 1 3 2 2 2 2 1 2 2 2 2 1 1 1 1 1 1 1 1 1 1 1 1 3 4 1 1
3 3 3 2 2 1 -0 1 2 2 2 1 2 2 2 2 2 2 2 1 1 1 1 1 1 1 1 1 1 5 6 4 1
3 3 3 2 2 2 2 2 1 2 2 2 2 2 2 2 2 2 2 2 2 2 1 2 2 1 1 1 1 6 7 6 1
2 2 1 2 2 2 1 2 1 2 2 2 2 2 2 2 2 2 2 2 2 2 2 2 2 1 1 2 1 7 8 7 2
3 3 3 3 2 2 2 2 1 2 2 2 3 2 2 1 1 2 2 2 2 1 1 2 1 2 1 2 1 6 9 7 1
3 3 2 2 2 2 2 1 2 1 0 2 2 2 2 2 2 2 2 2 1 2 2 2 2 2 1 1 1 1 10 11 1
3 3 3 2 3 2 2 1 1 2 2 1 0 1 2 2 2 2 2 2 2 2 2 2 2 2 2 1 1 6 10 12 9
3 3 3 2 3 3 2 2 1 2 2 1 1 2 2 2 2 2 1 2 2 2 2 3 3 3 3 2 1 1 9 12 11
3 3 3 3 3 3 3 1 1 1 1 1 2 2 2 2 2 2 2 2 2 2 2 3 3 3 3 3 2 2 1 5 7
3 3 3 3 3 3 3 2 2 1 1 1 2 2 2 2 2 2 2 2 4 2 5 6 3 2 2 3 3 2 7 6 1
3 3 3 3 3 3 3 2 2 2 2 1 2 3 3 3 2 2 2 4 6 17 17 18 18 17 7 8 14 16 16 16 16
3 2 3 3 3 3 3 2 2 2 2 2 2 2 2 2 3 2 3 3 3 6 12 18 18 18 17 17 18 18 17 17 17